EW9200 Weather Reports


Display with metric or nautical units.
time (UTC)temp
F
wind
direction
speed
MPH
gust
MPH
rain 1hr
in
rain 24hr
in
rain mn
in
humidity
%
barometer
mb
20260509231031 71 260 2.0 11.0 0.00 0.00 0.00 46 1005.6
20260509230529 71 297 4.0 11.0 0.00 0.00 0.00 45 1005.4
20260509230047 71 265 5.0 11.0 0.00 0.00 0.00 44 1005.4
20260509225530 71 231 3.0 12.0 0.00 0.00 0.00 45 1005.5
20260509225029 71 295 3.0 12.0 0.00 0.00 0.00 44 1005.5
20260509224553 71 30 3.0 11.0 0.00 0.00 0.00 45 1005.4
20260509224030 71 34 4.0 11.0 0.00 0.00 0.00 43 1005.3
20260509223530 71 18 3.0 10.0 0.00 0.00 0.00 43 1005.3
20260509223047 71 184 3.0 12.0 0.00 0.00 0.00 45 1005.2
20260509222529 71 23 3.0 12.0 0.00 0.00 0.00 44 1005.2
20260509222035 71 212 3.0 12.0 0.00 0.00 0.00 44 1005.0
20260509221541 71 146 3.0 10.0 0.00 0.00 0.00 43 1005.1
20260509221029 71 327 3.0 10.0 0.00 0.00 0.00 43 1004.8
20260509220529 71 110 4.0 14.0 0.00 0.00 0.00 42 1005.1
20260509220041 71 293 3.0 14.0 0.00 0.00 0.00 42 1005.0
20260509215530 71 345 4.0 10.0 0.00 0.00 0.00 41 1005.0
20260509215030 71 289 3.0 11.0 0.00 0.00 0.00 41 1004.9
20260509214544 71 272 3.0 11.0 0.00 0.00 0.00 40 1004.8
20260509214031 71 204 4.0 11.0 0.00 0.00 0.00 40 1004.8
20260509213530 72 330 3.0 15.0 0.00 0.00 0.00 41 1004.8
20260509213043 72 32 6.0 15.0 0.00 0.00 0.00 40 1004.6
20260509212528 72 332 5.0 14.0 0.00 0.00 0.00 40 1004.8
20260509212033 72 202 3.0 21.0 0.00 0.00 0.00 40 1004.6
20260509211537 72 304 4.0 21.0 0.00 0.00 0.00 40 1004.4
20260509211030 72 352 4.0 13.0 0.00 0.00 0.00 39 1004.5
20260509210529 72 276 4.0 13.0 0.00 0.00 0.00 40 1004.4
20260509210037 72 126 5.0 17.0 0.00 0.00 0.00 40 1004.3
20260509205527 72 102 5.0 17.0 0.00 0.00 0.00 39 1004.4
20260509205029 72 215 5.0 14.0 0.00 0.00 0.00 38 1004.2
20260509204542 72 347 3.0 13.0 0.00 0.00 0.00 38 1004.4
20260509204030 72 306 2.0 13.0 0.00 0.00 0.00 38 1004.2
20260509203529 72 311 4.0 11.0 0.00 0.00 0.00 35 1004.1
20260509203052 72 44 3.0 9.0 0.00 0.00 0.00 37 1004.1
20260509202529 72 323 2.0 9.0 0.00 0.00 0.00 38 1004.3
20260509202030 72 11 3.0 13.0 0.00 0.00 0.00 37 1004.1
20260509201543 72 29 4.0 13.0 0.00 0.00 0.00 37 1004.3
20260509201030 72 70 4.0 10.0 0.00 0.00 0.00 37 1004.4
20260509200529 72 320 3.0 7.0 0.00 0.00 0.00 37 1004.3
20260509200041 72 325 2.0 10.0 0.00 0.00 0.00 37 1004.3
20260509195529 72 100 3.0 10.0 0.00 0.00 0.00 36 1004.3
20260509195031 72 330 3.0 11.0 0.00 0.00 0.00 36 1004.3
20260509194542 72 336 4.0 11.0 0.00 0.00 0.00 35 1004.4
20260509194030 73 1 4.0 17.0 0.00 0.00 0.00 35 1004.3
20260509193530 73 348 8.0 17.0 0.00 0.00 0.00 34 1004.2
20260509193045 74 322 2.0 10.0 0.00 0.00 0.00 36 1004.3
20260509192529 75 11 4.0 12.0 0.00 0.00 0.00 34 1004.2
20260509192029 75 30 4.0 15.0 0.00 0.00 0.00 34 1004.1
20260509191544 76 300 2.0 15.0 0.00 0.00 0.00 36 1004.4
20260509191032 75 352 5.0 13.0 0.00 0.00 0.00 35 1004.3
20260509190531 75 214 4.0 16.0 0.00 0.00 0.00 37 1004.2
20260509190041 74 9 6.0 16.0 0.00 0.00 0.00 35 1004.2
20260509185529 75 275 3.0 14.0 0.00 0.00 0.00 35 1004.1
20260509185029 75 335 4.0 14.0 0.00 0.00 0.00 35 1004.2
20260509184545 75 344 2.0 11.0 0.00 0.00 0.00 39 1004.3
20260509184030 74 297 3.0 11.0 0.00 0.00 0.00 37 1004.1
20260509183529 74 36 3.0 14.0 0.00 0.00 0.00 38 1004.2
20260509183038 74 349 3.0 14.0 0.00 0.00 0.00 38 1004.2
20260509182530 74 65 5.0 13.0 0.00 0.00 0.00 34 1004.2
20260509182028 75 37 3.0 10.0 0.00 0.00 0.00 39 1004.1
20260509181605 74 335 3.0 12.0 0.00 0.00 0.00 37 1004.3
20260509181029 74 294 5.0 12.0 0.00 0.00 0.00 37 1004.1
20260509180529 74 276 5.0 13.0 0.00 0.00 0.00 39 1003.9
20260509180110 74 59 4.0 17.0 0.00 0.00 0.00 39 1004.0
20260509175529 74 67 4.0 17.0 0.00 0.00 0.00 38 1004.2
20260509175029 75 285 5.0 17.0 0.00 0.00 0.00 38 1004.1
20260509174543 74 49 3.0 10.0 0.00 0.00 0.00 44 1004.0
20260509174029 75 176 2.0 7.0 0.00 0.00 0.00 45 1004.1
20260509173529 74 224 3.0 7.0 0.00 0.00 0.00 49 1004.0
20260509173043 74 50 3.0 9.0 0.00 0.00 0.00 47 1004.4
20260509172532 74 351 3.0 9.0 0.00 0.00 0.00 49 1004.2
20260509172029 73 136 2.0 11.0 0.00 0.00 0.00 48 1004.2
20260509171546 73 214 2.0 11.0 0.00 0.00 0.00 52 1004.3
20260509171028 72 206 5.0 11.0 0.00 0.00 0.00 51 1004.4
20260509170526 72 225 3.0 9.0 0.00 0.00 0.00 53 1004.3
20260509170051 72 337 2.0 8.0 0.00 0.00 0.00 53 1004.3
20260509165528 72 334 2.0 7.0 0.00 0.00 0.00 54 1004.2
20260509165028 72 46 2.0 7.0 0.00 0.00 0.00 57 1004.4
20260509164543 72 30 3.0 7.0 0.00 0.00 0.00 56 1004.3
20260509164030 72 172 3.0 7.0 0.00 0.00 0.00 55 1004.4
20260509163528 71 133 1.0 10.0 0.00 0.00 0.00 62 1004.3
20260509163044 71 231 2.0 10.0 0.00 0.00 0.00 56 1004.3
20260509162529 70 150 2.0 8.0 0.00 0.00 0.00 60 1004.4
20260509162031 70 200 3.0 8.0 0.00 0.00 0.00 62 1004.3
20260509161545 69 169 2.0 10.0 0.00 0.00 0.00 63 1004.5
20260509161029 69 160 3.0 10.0 0.00 0.00 0.00 66 1004.5
20260509160529 68 173 4.0 10.0 0.00 0.00 0.00 63 1004.2
20260509160036 68 218 3.0 10.0 0.00 0.00 0.00 66 1004.3
20260509155528 68 208 3.0 10.0 0.00 0.00 0.00 66 1004.4
20260509155028 68 116 3.0 8.0 0.00 0.00 0.00 68 1004.5
20260509154542 68 263 3.0 8.0 0.00 0.00 0.00 66 1004.6
20260509154029 67 253 3.0 8.0 0.00 0.00 0.00 70 1004.5
20260509153528 66 236 3.0 10.0 0.00 0.00 0.00 69 1004.6
20260509153047 66 209 4.0 10.0 0.00 0.00 0.00 70 1004.7
20260509152528 66 222 4.0 10.0 0.00 0.00 0.00 70 1004.6
20260509152029 66 137 3.0 9.0 0.00 0.00 0.00 72 1004.8
20260509151549 65 200 2.0 9.0 0.00 0.00 0.00 71 1004.7
20260509151028 65 142 3.0 7.0 0.00 0.00 0.00 72 1004.8
20260509150531 65 238 3.0 10.0 0.00 0.00 0.00 73 1004.6
20260509150042 64 184 3.0 10.0 0.00 0.00 0.00 74 1004.9
20260509145529 64 202 3.0 9.0 0.00 0.00 0.00 76 1004.8
20260509145029 64 240 2.0 9.0 0.00 0.00 0.00 77 1004.7
20260509144537 63 252 3.0 9.0 0.00 0.00 0.00 77 1004.7
20260509144029 63 37 3.0 6.0 0.00 0.00 0.00 78 1004.6
20260509143529 62 338 3.0 8.0 0.00 0.00 0.00 79 1004.6
20260509143046 62 193 4.0 8.0 0.00 0.00 0.00 80 1004.6
20260509142528 62 337 3.0 8.0 0.00 0.00 0.00 79 1004.5
20260509142028 62 210 2.0 8.0 0.00 0.00 0.00 80 1004.6
20260509141545 61 264 2.0 8.0 0.00 0.00 0.00 81 1004.5
20260509141029 61 240 2.0 6.0 0.00 0.00 0.00 81 1004.6
20260509140528 61 122 3.0 7.0 0.00 0.00 0.00 81 1004.7
20260509140042 60 195 2.0 10.0 0.00 0.00 0.00 83 1004.8
20260509135531 60 277 3.0 10.0 0.00 0.00 0.00 82 1004.8
20260509135028 59 150 3.0 10.0 0.00 0.00 0.00 84 1004.6
20260509134539 59 224 2.0 10.0 0.00 0.00 0.00 84 1004.7
20260509134029 59 250 3.0 10.0 0.00 0.00 0.00 83 1004.5
20260509133529 58 195 3.0 9.0 0.00 0.00 0.00 84 1004.5
20260509133055 58 114 3.0 9.0 0.00 0.00 0.00 86 1004.4
20260509132534 58 209 2.0 9.0 0.00 0.00 0.00 87 1004.6
20260509132029 57 255 3.0 9.0 0.00 0.00 0.00 87 1004.6
20260509131541 57 153 3.0 9.0 0.00 0.00 0.00 88 1004.6
20260509131028 56 259 4.0 9.0 0.00 0.00 0.00 88 1004.6
20260509130528 56 257 2.0 8.0 0.00 0.00 0.00 90 1004.7
20260509130040 56 219 2.0 9.0 0.00 0.00 0.00 90 1004.8
20260509125532 55 172 1.0 9.0 0.00 0.00 0.00 91 1004.7
20260509125028 55 184 4.0 9.0 0.00 0.00 0.00 91 1004.7
20260509124547 54 221 2.0 6.0 0.00 0.00 0.00 92 1004.6
20260509124028 54 182 1.0 6.0 0.00 0.00 0.00 93 1004.7
20260509123529 53 260 2.0 7.0 0.00 0.00 0.00 94 1004.7
20260509123042 53 239 2.0 7.0 0.00 0.00 0.00 95 1004.7
20260509122528 52 193 3.0 6.0 0.00 0.00 0.00 95 1004.6
20260509122029 52 156 2.0 6.0 0.00 0.00 0.00 95 1004.7
20260509121543 52 229 2.0 8.0 0.00 0.00 0.00 96 1004.7
20260509121029 52 249 2.0 8.0 0.00 0.00 0.00 96 1004.7
20260509120529 51 194 0.0 8.0 0.00 0.00 0.00 96 1004.6
20260509120046 51 269 2.0 8.0 0.00 0.00 0.00 97 1004.5
20260509115528 51 202 2.0 4.0 0.00 0.00 0.00 98 1004.7
20260509115028 51 195 2.0 4.0 0.00 0.00 0.00 98 1004.4
20260509114540 51 158 1.0 4.0 0.00 0.00 0.00 98 1004.5
20260509114029 50 198 1.0 4.0 0.00 0.00 0.00 98 1004.6
20260509113529 50 170 0.0 4.0 0.00 0.00 0.00 98 1004.5
20260509113044 50 144 0.0 4.0 0.00 0.00 0.00 98 1004.4
20260509112528 50 259 1.0 4.0 0.00 0.00 0.00 97 1003.9
20260509112028 50 61 0.0 4.0 0.00 0.00 0.00 97 1003.9
20260509111542 50 152 1.0 4.0 0.00 0.00 0.00 97 1003.5
20260509111028 50 221 0.0 4.0 0.00 0.00 0.00 97 1003.7
20260509110528 50 146 1.0 5.0 0.00 0.00 0.00 97 1003.7
20260509110038 50 198 1.0 5.0 0.00 0.00 0.00 97 1003.8
20260509105530 50 129 1.0 5.0 0.00 0.00 0.00 97 1003.7
20260509105029 50 214 1.0 5.0 0.00 0.00 0.00 97 1003.8
20260509104559 50 199 2.0 5.0 0.00 0.00 0.00 97 1003.8
20260509104028 50 146 1.0 5.0 0.00 0.00 0.00 97 1003.9
20260509103528 50 201 1.0 6.0 0.00 0.00 0.00 97 1003.9
20260509103043 50 209 2.0 6.0 0.00 0.00 0.00 97 1003.8
20260509102528 50 214 2.0 6.0 0.00 0.00 0.00 97 1003.9
20260509102029 50 158 2.0 6.0 0.00 0.00 0.00 97 1004.0
20260509101543 50 172 2.0 6.0 0.00 0.00 0.00 97 1004.0
20260509101030 50 159 1.0 5.0 0.00 0.00 0.00 97 1004.1
20260509100528 50 212 1.0 5.0 0.00 0.00 0.00 97 1004.2
20260509100045 50 199 2.0 4.0 0.00 0.00 0.00 97 1004.1
20260509095528 50 141 1.0 4.0 0.00 0.00 0.00 97 1004.1
20260509095027 50 163 1.0 4.0 0.00 0.00 0.00 97 1004.2
20260509094539 50 214 1.0 4.0 0.00 0.00 0.00 97 1004.3
20260509094026 50 131 1.0 3.0 0.00 0.00 0.00 97 1004.3
20260509093530 50 205 0.0 2.0 0.00 0.00 0.00 97 1004.4
20260509093042 50 210 0.0 2.0 0.00 0.00 0.00 97 1004.3
20260509092528 50 0 0.0 3.0 0.00 0.00 0.00 97 1004.5
20260509092028 50 0 0.0 3.0 0.00 0.00 0.00 97 1004.3
20260509091546 50 191 1.0 3.0 0.00 0.00 0.00 97 1004.3
20260509091028 50 142 1.0 2.0 0.00 0.00 0.00 97 1004.3
20260509090530 50 0 0.0 1.0 0.00 0.00 0.00 97 1004.5
20260509090052 50 188 0.0 4.0 0.00 0.00 0.00 97 1004.5
20260509085528 50 203 0.0 4.0 0.00 0.00 0.00 97 1004.4
20260509085028 50 160 0.0 1.0 0.00 0.00 0.00 97 1004.6
20260509084541 49 226 0.0 1.0 0.00 0.00 0.00 97 1004.5
20260509084028 49 0 0.0 2.0 0.00 0.00 0.00 97 1004.6
20260509083527 49 238 0.0 2.0 0.00 0.00 0.00 97 1004.6
20260509083044 49 195 0.0 1.0 0.00 0.00 0.00 97 1004.7
20260509082525 49 148 0.0 1.0 0.00 0.00 0.00 96 1004.5
20260509082026 49 0 0.0 2.0 0.00 0.00 0.00 97 1004.5
20260509081550 49 0 0.0 2.0 0.00 0.00 0.00 96 1004.5
20260509081029 49 146 0.0 1.0 0.00 0.00 0.00 96 1004.6
20260509080529 49 0 0.0 2.0 0.00 0.00 0.00 96 1004.7
20260509080040 49 0 0.0 2.0 0.00 0.00 0.00 96 1004.5
20260509075528 49 210 0.0 4.0 0.00 0.00 0.00 96 1004.4
20260509075028 49 186 0.0 4.0 0.00 0.00 0.00 96 1004.6
20260509074538 49 135 1.0 2.0 0.00 0.00 0.00 96 1004.5
20260509074028 49 0 0.0 1.0 0.00 0.00 0.00 95 1004.6
20260509073528 49 0 0.0 1.0 0.00 0.00 0.00 95 1004.7
20260509073046 49 0 0.0 1.0 0.00 0.00 0.00 95 1004.8
20260509072526 49 0 0.0 2.0 0.00 0.00 0.00 95 1004.8
20260509072025 49 158 0.0 2.0 0.00 0.00 0.00 95 1004.8
20260509071550 49 153 0.0 1.0 0.00 0.00 0.00 95 1004.9
20260509071204 49 0 0.0 0.0 0.00 0.00 0.00 94 1005.0
20260509070530 49 0 0.0 0.0 0.00 0.00 0.00 94 1005.2
20260509070051 49 0 0.0 0.0 0.00 0.00 0.00 94 1005.2
20260509065528 49 162 0.0 0.0 0.00 0.00 0.00 94 1005.3
20260509065031 49 0 0.0 0.0 0.00 0.00 0.00 94 1005.3
20260509064542 50 0 0.0 0.0 0.00 0.00 0.00 93 1005.3
20260509064028 50 0 0.0 0.0 0.00 0.00 0.00 93 1005.2
20260509063528 50 162 0.0 0.0 0.00 0.00 0.00 93 1005.4
20260509063102 50 0 0.0 0.0 0.00 0.00 0.00 93 1005.5
20260509062528 50 0 0.0 1.0 0.00 0.00 0.00 92 1005.4
20260509062030 51 0 0.0 1.0 0.00 0.00 0.00 92 1005.5
20260509061607 51 0 0.0 1.0 0.00 0.00 0.00 91 1005.4
20260509061033 51 0 0.0 1.0 0.00 0.00 0.00 91 1005.5
20260509060532 52 0 0.0 3.0 0.00 0.00 0.00 90 1005.4
20260509060056 52 0 0.0 3.0 0.00 0.00 0.00 91 1005.4
20260509055531 52 129 1.0 3.0 0.00 0.00 0.00 91 1005.6
20260509055029 52 158 1.0 3.0 0.00 0.00 0.00 91 1005.7
20260509054543 52 160 0.0 2.0 0.00 0.00 0.00 91 1005.8
20260509054029 52 0 0.0 2.0 0.00 0.00 0.00 90 1005.9
20260509053531 53 228 0.0 2.0 0.00 0.00 0.00 90 1005.9
20260509053043 53 0 0.0 2.0 0.00 0.00 0.00 90 1005.9
20260509052530 53 0 0.0 2.0 0.00 0.00 0.00 90 1005.9
20260509052028 53 148 1.0 3.0 0.00 0.00 0.00 89 1005.8
20260509051543 53 255 1.0 3.0 0.00 0.00 0.00 89 1005.6
20260509051028 54 217 1.0 7.0 0.00 0.00 0.00 89 1005.6
20260509050530 54 155 2.0 7.0 0.00 0.00 0.00 89 1005.7
20260509050042 54 166 0.0 4.0 0.00 0.00 0.00 89 1005.8
20260509045528 54 136 1.0 4.0 0.00 0.00 0.00 89 1005.8
20260509045030 54 250 1.0 4.0 0.00 0.00 0.00 89 1005.7
20260509044536 54 231 2.0 5.0 0.00 0.00 0.00 89 1005.7
20260509044033 54 158 1.0 5.0 0.00 0.00 0.00 89 1005.8
20260509043529 54 220 1.0 5.0 0.00 0.00 0.00 88 1006.0
20260509043043 54 234 1.0 5.0 0.00 0.00 0.00 88 1006.0
20260509042529 54 165 1.0 4.0 0.00 0.00 0.00 88 1005.9
20260509042029 54 198 1.0 5.0 0.00 0.00 0.00 88 1005.9
20260509041540 55 219 1.0 5.0 0.00 0.00 0.00 87 1005.8
20260509041028 55 190 1.0 8.0 0.00 0.00 0.00 87 1005.8
20260509040532 55 139 1.0 8.0 0.00 0.00 0.00 86 1005.8
20260509040047 55 166 1.0 7.0 0.00 0.00 0.00 86 1005.9
20260509035532 56 158 1.0 7.0 0.00 0.00 0.00 85 1006.1
20260509035030 56 145 2.0 7.0 0.00 0.00 0.00 85 1006.0
20260509034542 56 199 2.0 7.0 0.00 0.00 0.00 85 1006.0
20260509034030 56 214 2.0 5.0 0.00 0.00 0.00 84 1006.1
20260509033532 56 188 1.0 5.0 0.00 0.00 0.00 83 1006.1
20260509033043 56 143 2.0 5.0 0.00 0.00 0.00 82 1006.2
20260509032530 56 0 1.0 5.0 0.00 0.00 0.00 81 1006.3
20260509032030 57 164 1.0 5.0 0.00 0.00 0.00 80 1006.2
20260509031544 57 160 1.0 7.0 0.00 0.00 0.00 80 1006.3
20260509031030 57 171 2.0 7.0 0.00 0.00 0.00 79 1006.1
20260509030530 57 193 2.0 6.0 0.00 0.00 0.00 78 1006.2
20260509030050 57 156 2.0 6.0 0.00 0.00 0.00 78 1006.2
20260509025533 58 141 2.0 6.0 0.00 0.00 0.00 77 1006.1
20260509025033 58 176 1.0 6.0 0.00 0.00 0.00 76 1006.1
20260509024540 58 167 3.0 9.0 0.00 0.00 0.00 76 1006.3
20260509024030 58 200 2.0 9.0 0.00 0.00 0.00 76 1006.1
20260509023531 58 207 2.0 9.0 0.00 0.00 0.00 76 1006.2
20260509023040 57 200 1.0 4.0 0.00 0.00 0.00 77 1005.9
20260509022533 58 163 1.0 4.0 0.00 0.00 0.00 78 1006.1
20260509022031 58 193 1.0 3.0 0.00 0.00 0.00 77 1006.1
20260509021537 58 193 1.0 5.0 0.00 0.00 0.00 77 1006.0
20260509021029 58 155 2.0 5.0 0.00 0.00 0.00 77 1006.0
20260509020530 59 159 1.0 5.0 0.00 0.00 0.00 77 1006.0
20260509020050 59 226 1.0 4.0 0.00 0.00 0.00 76 1006.0
20260509015530 59 222 1.0 6.0 0.00 0.00 0.00 76 1006.0
20260509015028 59 225 1.0 6.0 0.00 0.00 0.00 75 1005.9
20260509014548 59 203 2.0 6.0 0.00 0.00 0.00 74 1005.7
20260509014029 60 198 0.0 4.0 0.00 0.00 0.00 71 1005.7
20260509013529 60 224 1.0 4.0 0.00 0.00 0.00 69 1005.7
20260509013042 60 190 1.0 4.0 0.00 0.00 0.00 66 1005.7
20260509012526 61 163 1.0 3.0 0.00 0.00 0.00 63 1005.7
20260509012030 61 0 1.0 3.0 0.00 0.00 0.00 62 1005.7
20260509011544 61 253 0.0 2.0 0.00 0.00 0.00 60 1005.6
20260509011030 62 0 0.0 4.0 0.00 0.00 0.00 60 1005.6
20260509010530 62 246 1.0 4.0 0.00 0.00 0.00 59 1005.6
20260509010045 62 270 0.0 5.0 0.00 0.00 0.00 59 1005.6
20260509005530 62 229 1.0 5.0 0.00 0.00 0.00 59 1005.5
20260509005030 63 243 1.0 4.0 0.00 0.00 0.00 59 1005.6
20260509004544 63 238 1.0 4.0 0.00 0.00 0.00 59 1005.7
20260509004029 63 229 1.0 4.0 0.00 0.00 0.00 59 1005.8
20260509003531 63 227 0.0 5.0 0.00 0.00 0.00 60 1005.7
20260509003045 63 250 2.0 5.0 0.00 0.00 0.00 59 1005.7
20260509002528 64 236 2.0 4.0 0.00 0.00 0.00 58 1005.8
20260509002029 64 266 1.0 5.0 0.00 0.00 0.00 58 1005.8
20260509001542 64 232 2.0 5.0 0.00 0.00 0.00 57 1005.8
20260509001030 64 212 2.0 5.0 0.00 0.00 0.00 56 1005.5
20260509000530 64 210 1.0 3.0 0.00 0.00 0.00 55 1005.8
20260509000041 64 165 0.0 4.0 0.00 0.00 0.00 55 1005.7
20260508235529 65 161 1.0 4.0 0.00 0.00 0.00 54 1005.8
20260508235031 65 207 0.0 7.0 0.00 0.00 0.00 53 1005.7
20260508234549 65 231 2.0 7.0 0.00 0.00 0.00 53 1005.8
20260508234029 66 217 1.0 7.0 0.00 0.00 0.00 52 1005.8
20260508233531 66 207 0.0 8.0 0.00 0.00 0.00 51 1005.6
20260508233047 66 234 2.0 8.0 0.00 0.00 0.00 51 1005.7
20260508232530 66 337 1.0 5.0 0.00 0.00 0.00 51 1005.8
20260508232029 66 197 2.0 6.0 0.00 0.00 0.00 49 1005.7
20260508231550 66 208 1.0 6.0 0.00 0.00 0.00 51 1005.8